Terminal Aerodrome Forecast
Issued by NWS

Home | Current Version | Previous Version | Text Only | Print | Product List | Glossary Off
Versions: 1 2 3 4 5 6 7 8 9 10 11 12 13 14 15 16 17 18 19 20 21 22 23 24 25

000
FTUS43 KLOT 201726
TAFDPA
TAF
KDPA 201726Z 2018/2118 24015G20KT P6SM BKN250
     FM202000 03012KT P6SM VCTS BKN040CB
     FM202300 04007KT P6SM BKN050
     FM211500 12005KT P6SM BKN100=

USA.gov is the U.S. government's official web portal to all federal, state and local government web resources and services.